Salisbury, MD

9:14 PM EST on February 06, 2016 (GMT -0500)
Salisbury-Ocean City Wicomico Regional

Weather History for KSBY - May, 2014

Change the Weather History Date:

Sunday, May 11, 2014

  Actual Average Record
Temperature  
Mean Temperature 70 °F 61 °F  
Max Temperature 83 °F 72 °F 88 °F (1947)
Min Temperature 57 °F 50 °F 32 °F (1966)
Degree Days  
Heating Degree Days 0 5  
Month to date heating degree days 26 70  
Since 1 July heating degree days 4147 4350  
Cooling Degree Days 5 1  
Month to date cooling degree days 33 11  
Year to date cooling degree days 47 28  
Growing Degree Days 21 (Base 50)    
Moisture  
Dew Point 54 °F    
Average Humidity 55    
Maximum Humidity 87    
Minimum Humidity 23    
Precipitation  
Precipitation T in 0.10 in 2.10 in (1961)
Month to date precipitation 0.05 1.15  
Year to date precipitation 9.66 16.08  
Snow  
Snow 0.00 in 0.00 in 0.00 in (2002)
Month to date snowfall 0.0 0.0  
Since 1 July snowfall 22.5 9.3  
Snow Depth 0.00 in    
Sea Level Pressure  
Sea Level Pressure 30.08 in    
Wind  
Wind Speed 6 mph (West)    
Max Wind Speed 14 mph    
Max Gust Speed 24 mph    
Visibility 10 miles    
Events Rain    
T = Trace of Precipitation, MM = Missing Value Source: NWS Daily Summary

Daily Weather History Graph

Daily Weather History Graph

Search for Another Location

Airport or City:

Trip Planner

Search our weather history database for the weather conditions in past years. The results will help you decide how hot, cold, wet, or windy it might be!

Date:

Astronomy

May. 11, 2014 Rise Set
Actual Time 5:54 AM EDT 8:02 PM EDT
Civil Twilight 5:25 AM EDT 8:32 PM EDT
Nautical Twilight 4:49 AM EDT 9:08 PM EDT
Astronomical Twilight 4:10 AM EDT 9:47 PM EDT
Moon 4:58 PM EDT (5/11) 3:55 AM EDT (5/11)
Length of Visible Light 15h 07m
Length of Day
14h 08m
Waxing Gibbous, 89% of the Moon is Illuminated
May 11
Waxing Gibbous
May 14
Full
May 21
Last Quarter
May 28
New
Jun 5
First Quarter

Hourly Weather History & Observations

Time (EDT) Temp. Heat Index Dew Point Humidity Pressure Visibility Wind Dir Wind Speed Gust Speed Precip Events Conditions
12:54 AM 71.1 °F - 57.9 °F 63% 29.99 in 10.0 mi West 8.1 mph - N/A   Clear
1:54 AM 71.1 °F - 59.0 °F 66% 29.98 in 10.0 mi West 5.8 mph - N/A   Mostly Cloudy
2:54 AM 66.9 °F - 60.1 °F 79% 29.99 in 10.0 mi SSW 6.9 mph - 0.00 in Rain Light Rain
3:54 AM 66.9 °F - 60.1 °F 79% 30.00 in 10.0 mi WSW 4.6 mph - 0.00 in   Overcast
4:54 AM 66.0 °F - 60.1 °F 81% 30.02 in 10.0 mi WSW 4.6 mph - N/A   Mostly Cloudy
5:54 AM 64.0 °F - 60.1 °F 87% 30.04 in 10.0 mi SW 5.8 mph - N/A   Partly Cloudy
6:54 AM 66.0 °F - 61.0 °F 84% 30.07 in 10.0 mi West 4.6 mph - N/A   Clear
7:54 AM 70.0 °F - 60.1 °F 71% 30.09 in 10.0 mi WNW 6.9 mph - N/A   Clear
8:54 AM 73.0 °F - 59.0 °F 61% 30.10 in 10.0 mi NNW 11.5 mph - N/A   Clear
9:54 AM 75.0 °F - 57.9 °F 55% 30.12 in 6.0 mi NW 13.8 mph - N/A   Haze
10:54 AM 77.0 °F - 55.9 °F 48% 30.12 in 10.0 mi WNW 9.2 mph - N/A   Clear
11:54 AM 79.0 °F - 55.0 °F 44% 30.12 in 10.0 mi NW 10.4 mph - N/A   Clear
12:54 PM 80.1 °F 79.9 °F 53.1 °F 39% 30.12 in 10.0 mi Variable 5.8 mph - N/A   Partly Cloudy
1:54 PM 81.0 °F - 48.9 °F 33% 30.11 in 10.0 mi Variable 3.5 mph - N/A   Clear
2:54 PM 81.0 °F - 46.0 °F 29% 30.10 in 10.0 mi WNW 8.1 mph - N/A   Clear
3:54 PM 82.0 °F - 46.0 °F 28% 30.09 in 10.0 mi NNW 9.2 mph - N/A   Clear
4:54 PM 80.1 °F - 44.1 °F 28% 30.10 in 10.0 mi West 10.4 mph - N/A   Clear
5:54 PM 79.0 °F - 37.9 °F 23% 30.10 in 10.0 mi Variable 6.9 mph - N/A   Clear
6:54 PM 78.1 °F - 43.0 °F 29% 30.10 in 10.0 mi West 6.9 mph - N/A   Clear
7:54 PM 73.0 °F - 48.9 °F 42% 30.11 in 10.0 mi Calm Calm - N/A   Clear
8:54 PM 66.0 °F - 54.0 °F 65% 30.12 in 10.0 mi Calm Calm - N/A   Clear
9:54 PM 64.0 °F - 55.0 °F 73% 30.14 in 10.0 mi Calm Calm - N/A   Clear
10:54 PM 60.1 °F - 54.0 °F 80% 30.14 in 10.0 mi Calm Calm - N/A   Clear
11:54 PM 61.0 °F - 55.0 °F 81% 30.15 in 10.0 mi Calm Calm - N/A   Clear